Temperature
14 12 12 12 13 14 14 13 13 13 14 14 13 13 14 15 14 14 14 15 16 16 16 16 16 16 16 16 15 15 14 13 12 12 11 11 10 10 10 10 9 9 9 9
12 12 13 13 13 13 13 13 12 12 13 13 12 12 13 12 13 14 15 15 16 16 16 16 16 16 15 15 15 14 14 13 12 12 11 11 10 10 10 10 9 9 9 9
12 13 13 13 13 13 12 12 12 13 13 13 12 12 12 13 13 14 14 16 16 16 16 16 15 15 15 15 14 14 13 13 12 11 11 11 10 10 10 9 9 9 9 9
12 12 13 13 12 12 12 12 12 13 12 11 12 11 12 12 12 12 13 13 15 15 16 15 15 15 15 14 14 13 13 12 12 11 11 11 10 10 10 9 9 9 9 8
11 12 12 12 12 12 12 13 13 13 12 11 11 11 12 12 12 13 12 13 14 15 15 15 15 15 14 14 13 13 13 12 12 11 11 11 10 10 10 10 9 9 9 8
12 12 12 13 13 12 13 12 11 9 10 10 11 10 11 11 13 13 12 13 14 14 14 14 14 14 14 13 13 13 13 12 12 11 11 11 10 10 10 10 9 9 9 8
12 12 13 13 13 12 12 12 11 11 10 10 10 10 11 12 12 12 12 13 14 14 14 14 14 14 13 13 13 13 13 12 12 11 11 11 10 10 10 10 9 9 9 8
10 11 12 12 12 11 11 12 11 11 11 10 10 9 11 12 12 13 13 13 14 13 14 14 14 14 13 13 13 13 12 12 12 11 11 11 10 10 10 9 9 9 8 8
10 11 12 11 12 12 11 11 11 10 10 10 10 10 11 13 13 12 12 12 12 13 14 14 14 14 13 13 13 13 12 12 12 11 11 10 10 10 10 9 9 8 8 7
11 11 12 12 12 12 11 10 9 10 10 10 10 10 12 14 14 12 11 11 12 13 13 14 14 14 13 13 13 12 12 12 11 11 11 10 10 9 9 9 8 8 7 7
11 11 11 11 11 10 10 10 10 9 9 10 10 11 12 12 13 12 11 12 13 13 14 14 14 14 13 13 12 12 12 11 11 11 10 10 9 9 9 8 8 7 7 7
10 10 10 10 11 10 11 10 10 10 9 8 8 11 13 12 11 11 12 14 14 14 14 14 14 13 13 13 12 12 12 11 11 10 10 9 9 9 8 8 7 7 7 6
11 10 10 11 11 10 10 10 10 10 9 7 8 11 13 12 13 14 14 15 15 15 14 14 13 13 13 13 12 12 11 11 10 10 9 9 9 8 8 7 7 6 6 6
11 9 10 11 11 9 9 10 9 10 9 8 8 11 12 13 13 13 15 15 15 15 15 14 14 14 13 13 12 12 11 11 10 9 9 9 8 8 7 7 6 6 6 5
10 10 10 11 11 10 10 10 9 10 10 10 10 10 12 13 13 14 15 15 15 15 14 14 14 14 13 13 12 11 11 10 10 9 9 8 8 7 7 6 6 6 5 5
9 10 9 11 11 10 11 10 10 10 10 10 10 10 12 13 13 13 14 14 14 15 15 15 14 14 13 13 12 11 11 10 9 9 8 8 7 7 6 6 6 5 5 4
8 9 9 9 10 11 10 10 10 10 9 10 11 12 12 12 11 12 14 14 15 15 15 15 14 14 13 13 12 11 11 10 9 8 8 7 7 6 6 5 5 5 4 4
9 8 8 8 9 9 11 11 11 10 10 9 10 11 11 11 13 14 14 15 15 15 15 14 14 13 13 12 11 11 10 9 8 8 7 7 6 6 5 5 5 4 3 3
8 9 7 7 8 9 9 10 10 10 10 10 10 10 11 11 11 12 15 15 15 14 14 14 13 13 12 12 11 10 9 8 8 7 7 6 6 5 5 5 4 3 3 3
7 8 7 6 8 9 10 11 11 11 11 11 10 10 10 9 9 11 14 14 14 14 13 13 13 12 12 11 10 9 8 8 7 7 6 6 5 5 4 4 3 3 2 2
7 7 7 7 8 8 9 10 11 11 11 12 12 11 10 8 11 13 13 13 13 13 12 12 12 11 11 10 9 8 8 7 7 6 6 5 5 4 4 3 3 2 2 1
7 6 6 6 7 8 9 9 10 11 13 13 13 13 12 12 12 12 12 12 12 12 11 11 11 10 9 9 8 8 7 7 6 5 5 5 4 4 3 2 2 2 1 1
7 9 8 8 9 10 10 11 13 13 13 14 14 14 13 13 12 12 12 12 11 11 10 10 10 9 8 8 7 7 6 6 5 5 4 4 3 3 2 2 2 1 1 0
6 6 6 7 7 8 10 12 13 13 13 14 14 13 13 13 12 12 11 11 10 10 9 9 8 8 8 7 6 6 5 5 4 4 4 3 3 2 2 1 1 0 0 -0
7 5 6 7 7 8 10 12 13 13 13 13 13 13 12 12 12 11 11 10 10 9 8 8 7 7 7 6 5 5 4 4 4 3 3 2 2 2 1 1 0 -0 -1 -1
5 6 7 8 8 8 11 14 13 13 13 12 12 12 11 11 11 10 10 9 9 8 8 7 6 6 5 5 5 4 4 3 3 2 2 2 1 1 0 -0 -0 -1 -1 -2
Wind_Speed
4 4 8 11 11 7 5 5 7 8 6 4 10 15 18 12 9 11 11 10 10 9 5 2 2 3 5 6 8 10 11 10 10 7 6 5 4 3 3 3 4 5 5 5
4 8 10 7 6 5 5 5 7 8 5 4 9 14 14 11 10 11 12 13 12 8 5 4 3 3 5 6 8 9 10 11 10 7 5 4 4 3 3 4 5 4 4 4
12 6 6 7 6 7 6 7 8 9 7 5 7 10 9 8 6 8 9 10 10 11 10 7 6 5 5 6 8 9 9 10 9 9 6 5 5 4 3 3 2 3 4 5
8 6 5 6 8 10 8 9 8 6 4 6 3 7 10 8 9 9 9 9 10 9 9 8 8 7 6 6 6 8 8 9 9 9 9 8 5 4 4 3 3 3 5 5
9 7 8 9 10 12 9 3 4 3 4 5 3 5 10 7 9 11 9 10 9 10 10 10 9 8 6 6 7 7 9 8 8 8 9 9 6 4 4 3 4 3 3 4
6 5 8 9 6 8 6 6 5 5 3 4 6 7 9 7 9 9 6 8 9 9 9 8 7 7 6 6 7 8 9 7 7 8 8 9 9 8 7 5 4 3 2 2
4 4 4 5 6 4 6 5 2 4 1 7 4 5 11 12 9 9 11 9 9 10 10 10 10 9 8 8 8 8 9 8 7 8 8 8 9 9 8 6 5 4 2 1
9 7 9 8 8 9 8 10 8 6 5 5 2 7 10 11 9 9 9 7 8 10 11 11 11 10 10 10 9 9 9 8 8 8 7 7 8 6 5 5 5 4 3 2
11 8 3 7 6 12 8 7 8 6 2 4 7 8 11 8 6 6 5 3 8 11 12 11 10 10 10 11 10 10 10 9 8 8 8 7 7 6 6 5 4 3 3 2
10 6 3 3 5 2 8 10 6 6 5 6 7 6 6 9 9 8 5 5 7 8 9 10 10 10 10 9 8 9 9 9 8 8 8 7 7 6 6 6 5 4 3 2
7 7 3 4 9 11 7 6 6 6 5 6 5 7 7 9 8 9 9 7 7 9 11 11 10 9 9 8 9 9 9 8 8 8 8 8 7 6 6 5 5 4 3 3
8 6 5 8 5 7 8 10 9 7 7 6 4 8 7 7 8 8 8 6 6 9 9 9 9 9 9 10 10 10 10 9 9 8 8 8 7 6 6 5 5 4 4 3
10 8 5 0 0 2 5 7 9 6 6 7 6 8 5 4 6 5 6 6 5 6 8 8 9 11 12 11 11 11 10 10 9 9 9 8 7 7 6 6 5 4 4 3
9 7 9 12 8 8 7 8 9 8 7 8 11 11 10 10 9 9 7 6 5 6 8 9 11 11 12 11 11 11 10 10 10 9 9 9 8 8 7 6 5 4 4 4
8 8 7 7 6 7 8 9 12 13 13 12 11 12 15 12 11 9 8 6 6 7 9 11 12 11 11 11 11 11 11 10 10 10 9 9 7 6 6 5 5 4 4 5
8 8 8 6 6 7 6 9 12 13 11 12 11 12 13 10 7 8 9 8 9 10 10 10 10 11 12 13 13 12 11 11 10 11 10 8 7 6 6 5 5 4 5 5
9 9 8 6 3 3 9 11 12 9 9 10 14 16 12 8 9 9 9 9 10 11 10 10 11 12 12 12 13 13 12 10 10 9 8 7 7 6 6 5 4 5 5 5
11 9 6 5 5 9 10 6 10 11 11 12 10 10 9 10 8 7 7 8 9 8 8 8 8 8 8 8 9 9 10 10 10 8 8 7 7 6 5 5 5 6 5 5
6 9 6 6 6 8 8 6 8 10 10 11 14 13 9 3 2 6 7 7 8 7 6 6 6 6 7 8 9 10 9 9 8 8 8 7 7 6 5 6 6 5 5 6
5 6 7 6 6 8 9 5 6 6 7 9 11 12 7 5 2 6 3 3 4 3 3 4 5 5 7 8 10 10 9 9 9 8 7 6 6 6 6 7 6 5 5 7
6 5 6 7 7 8 8 4 8 6 9 5 7 8 8 9 7 3 1 2 3 3 3 5 6 6 6 8 9 9 8 8 7 6 5 5 5 6 6 5 5 5 6 7
11 8 8 7 6 9 7 9 10 10 4 4 5 6 8 8 4 2 2 2 4 4 4 5 6 5 5 7 9 8 7 5 5 5 4 4 4 4 4 5 6 6 6 7
10 11 9 11 9 5 8 10 7 5 6 6 5 6 7 7 5 4 3 3 3 4 4 4 6 6 4 5 6 7 5 5 5 4 4 4 4 4 5 5 6 6 6 6
5 3 6 5 8 7 7 6 5 6 6 5 5 6 8 7 6 5 4 4 4 4 4 5 6 6 4 4 4 4 4 4 4 4 4 4 4 5 5 5 5 6 6 7
8 8 6 6 6 4 7 9 9 7 6 5 5 6 7 7 6 6 5 5 5 4 4 5 6 5 5 4 4 3 4 4 4 4 4 4 5 5 6 6 6 7 8 9
7 9 10 8 9 8 7 6 8 8 8 8 7 5 4 6 6 6 5 5 5 5 5 5 5 4 4 4 3 3 3 4 4 4 4 4 4 5 5 6 8 12 14 18
Wind_Direction
127 134 195 201 195 193 188 214 253 261 268 267 261 268 276 272 244 242 239 234 232 233 238 219 170 139 135 143 154 162 162 162 160 159 156 151 152 145 138 145 151 157 161 167
108 225 215 187 182 186 200 241 267 283 279 240 274 277 272 263 242 231 227 226 223 217 209 196 169 147 144 148 152 155 160 161 163 162 153 141 134 128 123 115 109 115 130 141
188 214 176 163 176 191 215 217 240 261 311 316 313 298 285 282 256 250 233 223 214 205 198 190 176 163 147 149 156 157 156 157 153 144 129 111 96 89 97 102 97 85 111 119
213 220 156 172 195 181 235 225 223 253 294 292 348 299 288 280 287 265 245 224 212 201 188 183 177 168 163 158 148 143 144 147 147 147 150 149 148 150 158 144 125 92 88 98
218 189 179 200 206 179 211 201 184 223 225 285 269 251 283 298 281 272 251 228 215 199 187 183 179 170 158 149 143 138 135 137 143 147 151 145 136 132 125 118 115 98 74 84
216 201 192 202 195 176 146 82 62 52 81 275 233 210 279 257 246 274 272 233 212 194 184 175 161 148 145 142 139 140 137 136 141 143 145 146 143 141 138 136 135 121 96 75
220 229 209 160 120 118 130 114 12 326 310 250 229 214 253 256 253 257 268 251 211 187 178 172 169 168 164 160 156 151 145 142 145 142 145 148 149 150 153 154 154 147 138 136
180 231 204 186 169 166 176 159 175 212 234 277 255 236 256 266 276 274 266 244 193 184 184 183 181 177 173 170 165 159 155 149 150 148 147 144 144 144 146 151 153 159 166 174
179 219 229 194 175 147 153 193 174 147 201 264 269 277 298 288 296 304 302 226 196 191 188 187 182 180 178 176 175 169 162 156 157 153 145 144 146 146 149 148 147 153 163 171
150 192 226 152 101 77 155 149 126 156 197 246 273 269 254 287 300 307 293 249 218 197 190 188 186 185 183 179 172 167 165 162 160 156 154 153 153 153 150 148 156 163 170 171
138 151 146 149 184 177 138 151 156 160 173 184 250 265 231 245 276 287 282 254 219 202 197 194 190 184 176 170 169 171 169 161 161 162 157 151 155 153 151 158 168 172 177 183
146 138 185 224 228 186 172 174 155 171 213 197 207 264 265 250 272 274 278 263 224 208 201 192 183 175 176 179 179 179 176 172 170 164 158 159 157 155 160 171 179 179 188 199
149 145 143 57 337 173 200 193 185 160 150 175 195 257 285 291 292 284 274 270 236 210 196 186 182 186 189 188 185 184 181 177 168 162 160 161 165 169 177 184 187 190 197 213
146 149 180 194 200 178 191 198 183 166 192 213 222 245 278 283 287 291 283 267 241 218 203 195 196 197 194 190 187 184 183 175 168 165 167 173 180 182 185 188 193 202 207 221
149 179 191 197 179 165 190 194 187 198 206 212 229 233 250 255 258 267 271 266 243 230 215 207 205 200 193 189 186 184 181 175 170 170 176 185 182 180 182 192 204 212 221 231
152 172 173 206 198 190 215 215 201 213 221 231 248 259 253 254 253 260 259 250 245 239 227 216 207 199 195 192 188 183 181 177 171 176 183 178 176 182 192 203 210 221 236 244
157 142 155 207 185 166 245 215 201 206 206 199 227 243 253 254 248 248 251 243 240 241 231 218 209 203 199 193 185 184 180 169 171 177 178 178 181 191 203 208 215 230 240 245
155 147 145 151 141 221 240 207 198 209 226 212 223 239 239 236 246 248 236 235 244 237 227 216 203 198 190 179 172 164 158 165 172 176 180 183 186 198 205 212 228 238 241 246
152 147 138 153 199 259 287 241 186 196 246 223 224 241 245 236 304 284 241 223 230 226 213 204 192 180 166 163 158 151 156 162 170 181 188 191 190 198 208 224 237 242 245 253
88 124 138 151 183 227 238 227 169 140 261 243 211 227 223 144 213 268 270 210 213 188 165 156 144 140 150 154 148 150 160 168 185 192 193 191 191 199 215 230 241 244 245 255
128 131 159 167 204 248 243 185 127 167 238 238 194 202 182 187 210 239 136 145 142 126 121 127 131 139 150 146 145 154 165 187 192 180 179 189 199 209 223 235 243 250 256 263
165 164 177 161 194 241 210 149 180 211 206 181 184 186 188 204 208 192 172 152 134 123 122 129 132 132 137 146 150 161 182 184 164 167 183 202 213 222 228 237 253 255 256 267
189 184 179 189 209 221 182 194 210 184 187 195 189 191 177 183 198 191 180 165 150 143 140 136 138 135 139 153 158 170 180 162 162 174 201 218 228 234 233 237 252 261 256 262
231 160 153 208 244 234 223 226 225 204 205 199 185 174 169 182 190 186 178 172 164 155 152 143 142 148 161 165 163 169 166 164 168 197 221 231 239 251 248 243 246 252 258 262
186 163 171 216 249 264 252 225 216 204 199 182 173 178 182 178 183 184 184 181 174 164 154 153 160 166 173 166 170 172 172 167 188 217 235 245 245 251 259 255 247 252 246 250
181 171 175 209 209 194 222 219 191 187 197 191 176 174 176 179 180 172 179 177 167 162 153 154 162 166 171 171 185 193 188 184 197 234 248 251 254 257 259 269 279 267 264 273
Height
1508 1514 1518 1517 1517 1520 1522 1525 1527 1523 1515 1516 1515 1509 1500 1495 1495 1494 1493 1493 1493 1495 1497 1498 1500 1501 1503 1505 1508 1511 1514 1518 1522 1526 1530 1534 1537 1540 1542 1543 1545 1545 1546 1546
1512 1513 1508 1510 1515 1518 1521 1525 1525 1520 1514 1515 1513 1507 1496 1490 1488 1486 1485 1486 1487 1490 1492 1494 1496 1498 1500 1503 1505 1508 1512 1515 1520 1524 1528 1531 1534 1537 1539 1541 1542 1543 1543 1543
1506 1505 1504 1510 1514 1518 1520 1523 1522 1520 1515 1512 1513 1506 1495 1485 1482 1480 1479 1480 1482 1484 1487 1490 1493 1495 1498 1501 1503 1506 1510 1513 1517 1521 1525 1529 1532 1534 1536 1538 1539 1540 1540 1540
1503 1501 1503 1507 1511 1515 1519 1514 1516 1517 1521 1523 1518 1520 1497 1487 1482 1476 1474 1474 1476 1479 1483 1487 1490 1493 1496 1499 1502 1505 1508 1511 1515 1519 1522 1525 1528 1531 1533 1535 1536 1537 1537 1537
1499 1498 1501 1504 1504 1508 1510 1508 1513 1515 1518 1523 1520 1521 1501 1488 1482 1472 1469 1469 1471 1475 1479 1483 1487 1491 1494 1497 1500 1503 1506 1510 1513 1517 1520 1523 1526 1528 1530 1532 1533 1533 1534 1533
1493 1493 1494 1496 1497 1501 1505 1511 1516 1522 1524 1528 1518 1522 1507 1488 1477 1470 1466 1466 1468 1472 1476 1481 1485 1489 1492 1495 1498 1501 1504 1508 1511 1514 1517 1520 1523 1525 1527 1529 1530 1530 1530 1530
1494 1493 1491 1492 1498 1501 1505 1516 1528 1527 1530 1526 1514 1516 1501 1476 1470 1468 1465 1464 1465 1468 1473 1477 1481 1485 1489 1493 1496 1499 1502 1506 1509 1512 1515 1518 1520 1523 1524 1526 1526 1527 1527 1527
1497 1497 1489 1489 1491 1499 1503 1508 1522 1527 1527 1522 1513 1513 1489 1470 1466 1464 1462 1461 1462 1465 1470 1474 1478 1483 1487 1491 1494 1497 1500 1504 1507 1510 1513 1515 1518 1520 1521 1522 1523 1524 1524 1524
1487 1491 1483 1483 1484 1490 1501 1505 1505 1517 1519 1521 1513 1502 1485 1465 1463 1462 1460 1459 1459 1462 1466 1471 1476 1481 1485 1488 1492 1495 1498 1501 1505 1508 1510 1513 1515 1517 1518 1519 1520 1520 1520 1520
1475 1487 1482 1482 1484 1487 1490 1497 1510 1514 1520 1520 1511 1503 1490 1471 1464 1462 1460 1459 1459 1461 1465 1469 1474 1478 1482 1486 1490 1493 1496 1499 1502 1505 1507 1510 1512 1513 1515 1516 1516 1517 1516 1516
1469 1480 1484 1484 1484 1488 1493 1497 1499 1507 1511 1516 1513 1500 1474 1469 1464 1462 1459 1457 1458 1460 1463 1467 1471 1475 1480 1483 1487 1490 1493 1496 1499 1502 1504 1506 1508 1510 1511 1512 1512 1513 1512 1512
1465 1476 1485 1482 1478 1478 1481 1485 1493 1502 1507 1510 1510 1495 1464 1463 1461 1459 1457 1456 1457 1459 1461 1465 1468 1472 1476 1479 1483 1486 1489 1492 1495 1498 1501 1503 1505 1506 1507 1508 1508 1508 1508 1507
1459 1472 1483 1483 1484 1481 1480 1481 1483 1487 1496 1507 1506 1489 1462 1461 1459 1457 1456 1456 1456 1457 1459 1462 1465 1468 1471 1475 1478 1482 1485 1488 1492 1494 1497 1499 1500 1502 1503 1504 1504 1504 1503 1502
1449 1463 1468 1473 1471 1473 1477 1477 1479 1484 1491 1496 1492 1479 1465 1460 1458 1455 1455 1454 1454 1455 1456 1458 1460 1463 1466 1470 1473 1477 1481 1484 1487 1490 1492 1494 1496 1497 1499 1499 1499 1499 1498 1497
1447 1457 1459 1459 1459 1465 1466 1468 1473 1475 1474 1478 1474 1472 1461 1456 1455 1453 1452 1451 1451 1451 1452 1453 1455 1457 1461 1464 1468 1472 1476 1479 1482 1485 1487 1490 1492 1493 1494 1494 1494 1494 1493 1492
1444 1452 1457 1458 1458 1461 1462 1462 1465 1467 1467 1468 1467 1463 1451 1450 1450 1449 1448 1448 1447 1447 1447 1449 1450 1453 1455 1458 1462 1466 1470 1473 1477 1480 1482 1485 1487 1488 1489 1489 1489 1488 1487 1486
1443 1451 1458 1462 1458 1459 1463 1456 1458 1459 1458 1459 1459 1451 1445 1446 1445 1444 1443 1443 1443 1442 1443 1444 1446 1448 1451 1454 1457 1461 1464 1468 1472 1475 1478 1480 1482 1483 1483 1484 1483 1482 1481 1480
1437 1446 1455 1462 1462 1467 1448 1441 1442 1446 1446 1447 1444 1441 1440 1440 1439 1439 1439 1439 1438 1439 1440 1441 1442 1444 1447 1450 1454 1457 1460 1464 1467 1470 1472 1475 1476 1477 1478 1478 1477 1476 1475 1473
1429 1439 1455 1461 1460 1455 1446 1438 1439 1443 1442 1436 1437 1435 1435 1436 1437 1435 1434 1434 1435 1436 1437 1438 1440 1442 1444 1447 1450 1453 1456 1459 1462 1465 1467 1470 1471 1472 1472 1472 1471 1470 1468 1466
1431 1434 1447 1457 1456 1454 1439 1430 1429 1436 1439 1428 1428 1430 1431 1435 1439 1433 1431 1431 1432 1433 1435 1436 1438 1440 1442 1444 1446 1449 1452 1454 1457 1460 1463 1465 1466 1466 1466 1466 1465 1463 1461 1459
1435 1439 1443 1449 1448 1444 1430 1427 1430 1441 1434 1422 1422 1424 1427 1429 1430 1429 1429 1429 1430 1432 1433 1435 1436 1438 1440 1442 1444 1446 1449 1451 1454 1457 1458 1460 1461 1461 1460 1460 1458 1456 1454 1451
1424 1435 1441 1445 1446 1440 1422 1425 1427 1423 1419 1419 1420 1421 1423 1424 1426 1427 1427 1428 1429 1430 1432 1433 1435 1436 1438 1440 1442 1444 1446 1449 1451 1452 1454 1455 1455 1455 1454 1453 1451 1449 1446 1443
1414 1414 1419 1423 1421 1414 1413 1414 1414 1415 1416 1417 1418 1420 1421 1422 1423 1425 1426 1427 1428 1429 1431 1432 1434 1435 1437 1438 1440 1442 1444 1446 1447 1448 1449 1450 1449 1449 1448 1446 1444 1441 1439 1435
1410 1409 1414 1416 1413 1409 1409 1409 1411 1412 1414 1415 1416 1418 1419 1420 1421 1422 1424 1425 1426 1428 1429 1430 1432 1433 1435 1437 1438 1440 1441 1442 1443 1444 1444 1444 1443 1442 1441 1439 1437 1434 1431 1427
1399 1406 1409 1410 1406 1405 1404 1404 1406 1408 1410 1412 1414 1415 1416 1417 1419 1420 1421 1423 1424 1426 1427 1429 1430 1432 1433 1434 1436 1437 1438 1438 1438 1438 1438 1438 1437 1435 1433 1431 1429 1425 1422 1420
1395 1398 1402 1401 1398 1399 1399 1400 1402 1404 1406 1408 1410 1412 1413 1415 1416 1418 1419 1421 1422 1423 1425 1426 1428 1429 1431 1432 1433 1433 1434 1434 1433 1432 1432 1431 1429 1427 1425 1422 1419 1416 1414 1410